Time,TemperatureF,DewpointF,PressureIn,WindDirection,WindDirectionDegrees,WindSpeedMPH,WindSpeedGustMPH,Humidity,HourlyPrecipIn,Conditions,Clouds,dailyrainin,SoftwareType,DateUTC
2013-07-28 00:04:00,57.9,51.4,29.95,WSW,252,3.0,8.0,79,0.00,,,0.00,Wunderground v.1.15,2013-07-28 05:04:00,
2013-07-28 00:12:00,58.0,51.5,29.94,West,263,2.0,8.0,79,0.00,,,0.00,Wunderground v.1.15,2013-07-28 05:12:00,
2013-07-28 00:18:00,58.1,51.3,29.94,SW,231,3.0,8.0,78,0.00,,,0.00,Wunderground v.1.15,2013-07-28 05:18:00,
2013-07-28 00:24:00,58.1,51.3,29.94,West,281,2.0,8.0,78,0.00,,,0.00,Wunderground v.1.15,2013-07-28 05:24:00,
2013-07-28 00:29:00,58.1,51.3,29.94,WNW,295,3.0,8.0,78,0.00,,,0.00,Wunderground v.1.15,2013-07-28 05:29:00,
2013-07-28 00:36:00,58.2,51.7,29.94,West,274,3.0,8.0,79,0.00,,,0.00,Wunderground v.1.15,2013-07-28 05:36:00,
2013-07-28 00:42:00,58.2,51.7,29.93,WNW,287,3.0,8.0,79,0.00,,,0.00,Wunderground v.1.15,2013-07-28 05:42:00,
2013-07-28 00:48:00,58.2,51.7,29.93,WNW,302,2.0,8.0,79,0.00,,,0.00,Wunderground v.1.15,2013-07-28 05:48:00,
2013-07-28 00:54:00,58.2,51.7,29.93,WSW,249,1.0,8.0,79,0.00,,,0.00,Wunderground v.1.15,2013-07-28 05:54:00,
2013-07-28 01:00:00,58.2,51.4,29.93,WNW,298,1.0,8.0,78,0.00,,,0.00,Wunderground v.1.15,2013-07-28 06:00:00,
2013-07-28 01:06:00,58.4,51.6,29.93,NW,305,1.0,8.0,78,0.00,,,0.00,Wunderground v.1.15,2013-07-28 06:06:00,
2013-07-28 01:12:00,58.5,51.3,29.92,West,264,2.0,8.0,77,0.00,,,0.00,Wunderground v.1.15,2013-07-28 06:12:00,
2013-07-28 01:18:00,58.6,51.4,29.92,West,281,2.0,8.0,77,0.00,,,0.00,Wunderground v.1.15,2013-07-28 06:18:00,
2013-07-28 01:24:00,58.9,51.3,29.92,WNW,291,2.0,8.0,76,0.00,,,0.00,Wunderground v.1.15,2013-07-28 06:24:00,
2013-07-28 01:30:00,59.0,51.4,29.92,NW,316,1.0,8.0,76,0.00,,,0.00,Wunderground v.1.15,2013-07-28 06:30:00,
2013-07-28 01:36:00,59.1,51.2,29.92,SW,226,1.0,8.0,75,0.00,,,0.00,Wunderground v.1.15,2013-07-28 06:36:00,
2013-07-28 01:42:00,59.3,51.0,29.92,NW,305,2.0,8.0,74,0.00,,,0.00,Wunderground v.1.15,2013-07-28 06:42:00,
2013-07-28 01:48:00,59.4,51.1,29.93,WNW,292,2.0,8.0,74,0.00,,,0.00,Wunderground v.1.15,2013-07-28 06:48:00,
2013-07-28 01:53:00,59.4,51.1,29.93,NNW,329,2.0,8.0,74,0.00,,,0.00,Wunderground v.1.15,2013-07-28 06:53:00,
2013-07-28 02:00:00,59.3,51.0,29.93,WSW,252,1.0,8.0,74,0.00,,,0.00,Wunderground v.1.15,2013-07-28 07:00:00,
2013-07-28 02:06:00,59.2,50.9,29.93,NW,306,1.0,8.0,74,0.00,,,0.00,Wunderground v.1.15,2013-07-28 07:06:00,
2013-07-28 02:12:00,59.1,50.8,29.93,WNW,284,1.0,2.0,74,0.00,,,0.00,Wunderground v.1.15,2013-07-28 07:12:00,
2013-07-28 02:18:00,59.2,51.3,29.93,West,266,2.0,8.0,75,0.00,,,0.00,Wunderground v.1.15,2013-07-28 07:18:00,
2013-07-28 02:24:00,59.0,51.4,29.93,WNW,294,2.0,8.0,76,0.00,,,0.00,Wunderground v.1.15,2013-07-28 07:24:00,
2013-07-28 02:30:00,58.9,51.3,29.93,NNW,338,1.0,8.0,76,0.00,,,0.00,Wunderground v.1.15,2013-07-28 07:30:00,
2013-07-28 02:36:00,58.9,51.7,29.93,NW,305,1.0,8.0,77,0.00,,,0.00,Wunderground v.1.15,2013-07-28 07:36:00,
2013-07-28 02:42:00,58.8,51.2,29.93,SSW,205,0.0,8.0,76,0.00,,,0.00,Wunderground v.1.15,2013-07-28 07:42:00,
2013-07-28 02:47:00,58.7,51.2,29.93,West,266,0.0,8.0,76,0.00,,,0.00,Wunderground v.1.15,2013-07-28 07:47:00,
2013-07-28 02:54:00,58.7,51.2,29.94,WNW,298,1.0,8.0,76,0.00,,,0.00,Wunderground v.1.15,2013-07-28 07:54:00,
2013-07-28 03:00:00,58.7,51.5,29.94,SW,229,1.0,8.0,77,0.00,,,0.00,Wunderground v.1.15,2013-07-28 08:00:00,
2013-07-28 03:06:00,58.7,51.2,29.94,West,275,1.0,8.0,76,0.00,,,0.00,Wunderground v.1.15,2013-07-28 08:06:00,
2013-07-28 03:12:00,58.6,51.4,29.94,SW,219,1.0,8.0,77,0.00,,,0.00,Wunderground v.1.15,2013-07-28 08:12:00,
2013-07-28 03:18:00,58.2,51.0,29.94,WSW,250,1.0,8.0,77,0.00,,,0.00,Wunderground v.1.15,2013-07-28 08:18:00,
2013-07-28 03:24:00,57.9,50.7,29.94,West,274,0.0,8.0,77,0.00,,,0.00,Wunderground v.1.15,2013-07-28 08:24:00,
2013-07-28 03:30:00,57.7,50.5,29.94,SW,231,0.0,8.0,77,0.00,,,0.00,Wunderground v.1.15,2013-07-28 08:30:00,
2013-07-28 03:36:00,57.5,50.3,29.94,NNE,22,0.0,8.0,77,0.00,,,0.00,Wunderground v.1.15,2013-07-28 08:36:00,
2013-07-28 03:42:00,57.3,50.5,29.94,East,95,1.0,8.0,78,0.00,,,0.00,Wunderground v.1.15,2013-07-28 08:42:00,
2013-07-28 03:48:00,57.1,50.6,29.94,NW,309,1.0,8.0,79,0.00,,,0.00,Wunderground v.1.15,2013-07-28 08:48:00,
2013-07-28 03:54:00,56.8,50.7,29.94,WNW,286,0.0,8.0,80,0.00,,,0.00,Wunderground v.1.15,2013-07-28 08:54:00,
2013-07-28 04:00:00,56.5,50.7,29.95,NNE,25,0.0,8.0,81,0.00,,,0.00,Wunderground v.1.15,2013-07-28 09:00:00,
2013-07-28 04:06:00,56.3,50.9,29.95,West,264,1.0,8.0,82,0.00,,,0.00,Wunderground v.1.15,2013-07-28 09:06:00,
2013-07-28 04:12:00,56.0,49.9,29.94,WNW,284,1.0,2.0,80,0.00,,,0.00,Wunderground v.1.15,2013-07-28 09:12:00,
2013-07-28 04:18:00,55.9,49.5,29.95,WNW,290,1.0,8.0,79,0.00,,,0.00,Wunderground v.1.15,2013-07-28 09:18:00,
2013-07-28 04:24:00,55.7,49.6,29.95,West,259,1.0,8.0,80,0.00,,,0.00,Wunderground v.1.15,2013-07-28 09:24:00,
2013-07-28 04:30:00,55.4,49.7,29.95,NW,315,0.0,8.0,81,0.00,,,0.00,Wunderground v.1.15,2013-07-28 09:30:00,
2013-07-28 04:36:00,55.2,49.5,29.95,West,260,1.0,8.0,81,0.00,,,0.00,Wunderground v.1.15,2013-07-28 09:36:00,
2013-07-28 04:42:00,54.9,48.8,29.96,NW,326,1.0,8.0,80,0.00,,,0.00,Wunderground v.1.15,2013-07-28 09:42:00,
2013-07-28 04:48:00,54.7,48.3,29.96,ENE,78,1.0,8.0,79,0.00,,,0.00,Wunderground v.1.15,2013-07-28 09:48:00,
2013-07-28 04:54:00,54.5,48.1,29.96,West,264,1.0,8.0,79,0.00,,,0.00,Wunderground v.1.15,2013-07-28 09:54:00,
2013-07-28 04:59:00,54.3,48.3,29.96,NW,325,0.0,8.0,80,0.00,,,0.00,Wunderground v.1.15,2013-07-28 09:59:00,
2013-07-28 05:06:00,54.1,48.1,29.96,South,172,0.0,8.0,80,0.00,,,0.00,Wunderground v.1.15,2013-07-28 10:06:00,
2013-07-28 05:12:00,53.9,48.2,29.96,NE,50,0.0,8.0,81,0.00,,,0.00,Wunderground v.1.15,2013-07-28 10:12:00,
2013-07-28 05:18:00,53.6,48.2,29.96,SSE,158,0.0,8.0,82,0.00,,,0.00,Wunderground v.1.15,2013-07-28 10:18:00,
2013-07-28 05:24:00,53.3,47.9,29.96,WNW,287,0.0,8.0,82,0.00,,,0.00,Wunderground v.1.15,2013-07-28 10:24:00,
2013-07-28 05:30:00,53.0,48.0,29.97,WNW,295,0.0,8.0,83,0.00,,,0.00,Wunderground v.1.15,2013-07-28 10:30:00,
2013-07-28 05:36:00,52.9,47.9,29.97,WNW,291,0.0,8.0,83,0.00,,,0.00,Wunderground v.1.15,2013-07-28 10:36:00,
2013-07-28 05:42:00,52.7,48.0,29.97,West,278,0.0,8.0,84,0.00,,,0.00,Wunderground v.1.15,2013-07-28 10:42:00,
2013-07-28 05:48:00,52.6,47.9,29.97,ENE,63,0.0,8.0,84,0.00,,,0.00,Wunderground v.1.15,2013-07-28 10:48:00,
2013-07-28 05:54:00,52.4,47.7,29.97,WNW,295,0.0,8.0,84,0.00,,,0.00,Wunderground v.1.15,2013-07-28 10:54:00,
2013-07-28 06:00:00,52.2,47.5,29.98,NE,49,0.0,8.0,84,0.00,,,0.00,Wunderground v.1.15,2013-07-28 11:00:00,
2013-07-28 06:06:00,52.3,47.6,29.98,NE,46,0.0,8.0,84,0.00,,,0.00,Wunderground v.1.15,2013-07-28 11:06:00,
2013-07-28 06:12:00,52.2,47.5,29.98,NE,39,0.0,8.0,84,0.00,,,0.00,Wunderground v.1.15,2013-07-28 11:12:00,
2013-07-28 06:17:00,52.1,47.7,29.98,NE,39,0.0,8.0,85,0.00,,,0.00,Wunderground v.1.15,2013-07-28 11:17:00,
2013-07-28 06:24:00,52.1,47.7,29.99,WNW,299,0.0,8.0,85,0.00,,,0.00,Wunderground v.1.15,2013-07-28 11:24:00,
2013-07-28 06:29:00,52.1,47.7,29.98,NE,39,0.0,8.0,85,0.00,,,0.00,Wunderground v.1.15,2013-07-28 11:29:00,
2013-07-28 06:36:00,52.1,47.7,29.98,SSW,203,0.0,8.0,85,0.00,,,0.00,Wunderground v.1.15,2013-07-28 11:36:00,
2013-07-28 06:42:00,52.2,47.8,29.98,SW,228,0.0,8.0,85,0.00,,,0.00,Wunderground v.1.15,2013-07-28 11:42:00,
2013-07-28 06:48:00,52.4,47.7,29.99,NW,309,1.0,8.0,84,0.00,,,0.00,Wunderground v.1.15,2013-07-28 11:48:00,
2013-07-28 06:54:00,52.6,47.6,29.99,East,87,1.0,8.0,83,0.00,,,0.00,Wunderground v.1.15,2013-07-28 11:54:00,
2013-07-28 07:00:00,52.9,47.6,29.99,SSE,165,1.0,1.0,82,0.00,,,0.00,Wunderground v.1.15,2013-07-28 12:00:00,
2013-07-28 07:06:00,53.2,47.5,29.99,WNW,288,1.0,8.0,81,0.00,,,0.00,Wunderground v.1.15,2013-07-28 12:06:00,
2013-07-28 07:12:00,53.3,47.6,29.99,ENE,74,1.0,8.0,81,0.00,,,0.00,Wunderground v.1.15,2013-07-28 12:12:00,
2013-07-28 07:18:00,53.5,47.8,29.99,NNW,343,1.0,8.0,81,0.00,,,0.00,Wunderground v.1.15,2013-07-28 12:18:00,
2013-07-28 07:24:00,53.6,47.6,29.99,NE,37,1.0,8.0,80,0.00,,,0.00,Wunderground v.1.15,2013-07-28 12:24:00,
2013-07-28 07:30:00,53.6,47.2,29.99,NNE,27,1.0,8.0,79,0.00,,,0.00,Wunderground v.1.15,2013-07-28 12:30:00,
2013-07-28 07:36:00,53.7,47.3,29.99,WSW,255,2.0,8.0,79,0.00,,,0.00,Wunderground v.1.15,2013-07-28 12:36:00,
2013-07-28 07:42:00,54.3,47.9,29.99,West,269,1.0,8.0,79,0.00,,,0.00,Wunderground v.1.15,2013-07-28 12:42:00,
2013-07-28 07:48:00,54.8,48.1,29.99,ESE,107,1.0,8.0,78,0.00,,,0.00,Wunderground v.1.15,2013-07-28 12:48:00,
2013-07-28 07:54:00,55.1,48.0,30.00,WSW,248,1.0,8.0,77,0.00,,,0.00,Wunderground v.1.15,2013-07-28 12:54:00,
2013-07-28 08:00:00,55.1,47.7,30.00,West,277,1.0,1.0,76,0.00,,,0.00,Wunderground v.1.15,2013-07-28 13:00:00,
2013-07-28 08:05:00,55.1,48.0,30.00,NE,51,1.0,8.0,77,0.00,,,0.00,Wunderground v.1.15,2013-07-28 13:05:00,
2013-07-28 08:12:00,55.1,47.7,30.00,NE,53,2.0,8.0,76,0.00,,,0.00,Wunderground v.1.15,2013-07-28 13:12:00,
2013-07-28 08:17:00,55.0,48.3,30.00,SW,236,2.0,8.0,78,0.00,,,0.00,Wunderground v.1.15,2013-07-28 13:17:00,
2013-07-28 08:24:00,55.3,47.9,30.00,NE,40,1.0,8.0,76,0.00,,,0.00,Wunderground v.1.15,2013-07-28 13:24:00,
2013-07-28 08:30:00,55.7,47.9,30.00,NW,325,2.0,2.0,75,0.00,,,0.00,Wunderground v.1.15,2013-07-28 13:30:00,
2013-07-28 08:36:00,56.5,49.0,30.00,NW,317,1.0,8.0,76,0.00,,,0.00,Wunderground v.1.15,2013-07-28 13:36:00,
2013-07-28 08:42:00,56.4,48.2,30.00,NE,56,1.0,8.0,74,0.00,,,0.00,Wunderground v.1.15,2013-07-28 13:42:00,
2013-07-28 08:48:00,56.3,47.8,30.01,ENE,62,2.0,8.0,73,0.00,,,0.00,Wunderground v.1.15,2013-07-28 13:48:00,
2013-07-28 08:54:00,56.4,48.2,30.00,WNW,287,2.0,8.0,74,0.00,,,0.00,Wunderground v.1.15,2013-07-28 13:54:00,
2013-07-28 09:00:00,56.6,48.4,30.00,WNW,292,1.0,8.0,74,0.00,,,0.00,Wunderground v.1.15,2013-07-28 14:00:00,
2013-07-28 09:06:00,56.6,48.4,30.01,WSW,257,1.0,8.0,74,0.00,,,0.00,Wunderground v.1.15,2013-07-28 14:06:00,
2013-07-28 09:12:00,56.6,48.8,30.01,NW,308,2.0,8.0,75,0.00,,,0.00,Wunderground v.1.15,2013-07-28 14:12:00,
2013-07-28 09:18:00,56.7,48.1,30.01,NNE,19,3.0,8.0,73,0.00,,,0.00,Wunderground v.1.15,2013-07-28 14:18:00,
2013-07-28 09:24:00,56.8,48.2,30.00,SW,225,2.0,8.0,73,0.00,,,0.00,Wunderground v.1.15,2013-07-28 14:24:00,
2013-07-28 09:30:00,57.1,48.5,30.00,North,5,2.0,2.0,73,0.00,,,0.00,Wunderground v.1.15,2013-07-28 14:30:00,
2013-07-28 09:36:00,57.5,48.9,30.01,NW,314,2.0,8.0,73,0.00,,,0.00,Wunderground v.1.15,2013-07-28 14:36:00,
2013-07-28 09:42:00,58.0,49.0,30.01,WNW,286,1.0,8.0,72,0.00,,,0.00,Wunderground v.1.15,2013-07-28 14:42:00,
2013-07-28 09:47:00,57.8,48.5,30.01,ESE,116,1.0,8.0,71,0.00,,,0.00,Wunderground v.1.15,2013-07-28 14:47:00,
2013-07-28 09:54:00,57.5,48.2,30.01,NW,319,1.0,8.0,71,0.00,,,0.00,Wunderground v.1.15,2013-07-28 14:54:00,
2013-07-28 09:59:00,58.0,49.0,30.01,NW,311,2.0,2.0,72,0.00,,,0.00,Wunderground v.1.15,2013-07-28 14:59:00,
2013-07-28 10:06:00,58.7,49.3,30.01,NW,319,2.0,8.0,71,0.00,,,0.00,Wunderground v.1.15,2013-07-28 15:06:00,
2013-07-28 10:12:00,58.2,48.5,30.01,SW,236,3.0,6.0,70,0.00,,,0.00,Wunderground v.1.15,2013-07-28 15:12:00,
2013-07-28 10:18:00,58.3,48.9,30.01,NE,40,3.0,8.0,71,0.00,,,0.00,Wunderground v.1.15,2013-07-28 15:18:00,
2013-07-28 10:23:00,58.6,48.8,30.01,WSW,250,2.0,8.0,70,0.00,,,0.00,Wunderground v.1.15,2013-07-28 15:23:00,
2013-07-28 10:30:00,59.2,48.6,30.01,WNW,287,2.0,8.0,68,0.00,,,0.00,Wunderground v.1.15,2013-07-28 15:30:00,
2013-07-28 10:35:00,58.9,48.4,30.01,NNW,334,2.0,8.0,68,0.00,,,0.00,Wunderground v.1.15,2013-07-28 15:35:00,
2013-07-28 10:42:00,59.2,48.2,30.01,NNW,331,2.0,8.0,67,0.00,,,0.00,Wunderground v.1.15,2013-07-28 15:42:00,
2013-07-28 10:48:00,59.1,48.5,30.02,NE,46,2.0,8.0,68,0.00,,,0.00,Wunderground v.1.15,2013-07-28 15:48:00,
2013-07-28 10:54:00,59.5,48.5,30.01,WSW,245,3.0,8.0,67,0.00,,,0.00,Wunderground v.1.15,2013-07-28 15:54:00,
2013-07-28 11:00:00,60.1,49.1,30.01,ENE,74,3.0,8.0,67,0.00,,,0.00,Wunderground v.1.15,2013-07-28 16:00:00,
2013-07-28 11:06:00,59.9,49.3,30.01,West,259,3.0,8.0,68,0.00,,,0.00,Wunderground v.1.15,2013-07-28 16:06:00,
2013-07-28 11:12:00,60.2,49.2,30.01,SW,221,3.0,8.0,67,0.00,,,0.00,Wunderground v.1.15,2013-07-28 16:12:00,
2013-07-28 11:18:00,60.5,49.1,30.01,West,261,3.0,8.0,66,0.00,,,0.00,Wunderground v.1.15,2013-07-28 16:18:00,
2013-07-28 11:24:00,60.7,49.3,30.01,WSW,250,3.0,8.0,66,0.00,,,0.00,Wunderground v.1.15,2013-07-28 16:24:00,
2013-07-28 11:30:00,61.1,49.2,30.02,West,276,3.0,3.0,65,0.00,,,0.00,Wunderground v.1.15,2013-07-28 16:30:00,
2013-07-28 11:36:00,61.2,49.3,30.01,West,278,2.0,8.0,65,0.00,,,0.00,Wunderground v.1.15,2013-07-28 16:36:00,
2013-07-28 11:42:00,61.7,49.0,30.02,NW,322,2.0,8.0,63,0.00,,,0.00,Wunderground v.1.15,2013-07-28 16:42:00,
2013-07-28 11:48:00,61.9,49.2,30.01,WSW,250,2.0,8.0,63,0.00,,,0.00,Wunderground v.1.15,2013-07-28 16:48:00,
2013-07-28 11:54:00,62.5,49.3,30.01,SW,235,3.0,8.0,62,0.00,,,0.00,Wunderground v.1.15,2013-07-28 16:54:00,
2013-07-28 12:00:00,62.3,49.5,30.01,West,270,4.0,4.0,63,0.00,,,0.00,Wunderground v.1.15,2013-07-28 17:00:00,
2013-07-28 12:06:00,62.8,50.4,30.01,WSW,239,3.0,8.0,64,0.00,,,0.00,Wunderground v.1.15,2013-07-28 17:06:00,
2013-07-28 12:12:00,63.4,50.6,30.02,WSW,252,2.0,8.0,63,0.00,,,0.00,Wunderground v.1.15,2013-07-28 17:12:00,
2013-07-28 12:18:00,63.3,50.9,30.02,WNW,300,3.0,8.0,64,0.00,,,0.00,Wunderground v.1.15,2013-07-28 17:18:00,
2013-07-28 12:24:00,63.5,49.8,30.02,SW,226,3.0,7.0,61,0.00,,,0.00,Wunderground v.1.15,2013-07-28 17:24:00,
2013-07-28 12:30:00,63.8,50.1,30.02,WSW,250,3.0,8.0,61,0.00,,,0.00,Wunderground v.1.15,2013-07-28 17:30:00,
2013-07-28 12:36:00,63.9,49.3,30.02,NW,320,2.0,8.0,59,0.00,,,0.00,Wunderground v.1.15,2013-07-28 17:36:00,
2013-07-28 12:42:00,64.1,50.8,30.02,East,91,2.0,8.0,62,0.00,,,0.00,Wunderground v.1.15,2013-07-28 17:42:00,
2013-07-28 12:48:00,64.3,49.7,30.02,SW,224,2.0,8.0,59,0.00,,,0.00,Wunderground v.1.15,2013-07-28 17:48:00,
2013-07-28 12:54:00,64.1,50.4,30.02,WNW,285,2.0,8.0,61,0.00,,,0.00,Wunderground v.1.15,2013-07-28 17:54:00,
2013-07-28 13:00:00,64.2,49.1,30.01,WSW,250,3.0,9.0,58,0.00,,,0.00,Wunderground v.1.15,2013-07-28 18:00:00,
2013-07-28 13:05:00,64.8,50.6,30.01,NW,324,3.0,9.0,60,0.00,,,0.00,Wunderground v.1.15,2013-07-28 18:05:00,
2013-07-28 13:12:00,64.9,49.8,30.01,WNW,293,2.0,8.0,58,0.00,,,0.00,Wunderground v.1.15,2013-07-28 18:12:00,
2013-07-28 13:18:00,64.9,49.8,30.01,NW,307,3.0,8.0,58,0.00,,,0.00,Wunderground v.1.15,2013-07-28 18:18:00,
2013-07-28 13:24:00,65.4,50.7,30.01,West,260,2.0,8.0,59,0.00,,,0.00,Wunderground v.1.15,2013-07-28 18:24:00,
2013-07-28 13:30:00,65.3,50.6,30.01,WNW,300,3.0,3.0,59,0.00,,,0.00,Wunderground v.1.15,2013-07-28 18:30:00,
2013-07-28 13:36:00,65.7,50.5,30.01,West,278,2.0,8.0,58,0.00,,,0.00,Wunderground v.1.15,2013-07-28 18:36:00,
2013-07-28 13:42:00,65.7,50.5,30.01,North,353,3.0,8.0,58,0.00,,,0.00,Wunderground v.1.15,2013-07-28 18:42:00,
2013-07-28 13:48:00,66.0,50.8,30.01,SW,218,3.0,8.0,58,0.00,,,0.00,Wunderground v.1.15,2013-07-28 18:48:00,
2013-07-28 13:54:00,66.2,50.0,30.01,WSW,245,2.0,8.0,56,0.00,,,0.00,Wunderground v.1.15,2013-07-28 18:54:00,
2013-07-28 14:00:00,65.8,50.6,30.01,ENE,77,3.0,3.0,58,0.00,,,0.00,Wunderground v.1.15,2013-07-28 19:00:00,
2013-07-28 14:06:00,66.0,49.8,30.01,WSW,250,3.0,8.0,56,0.00,,,0.00,Wunderground v.1.15,2013-07-28 19:06:00,
2013-07-28 14:12:00,65.9,50.2,30.01,SW,224,3.0,8.0,57,0.00,,,0.00,Wunderground v.1.15,2013-07-28 19:12:00,
2013-07-28 14:18:00,65.8,50.6,30.01,NW,319,3.0,8.0,58,0.00,,,0.00,Wunderground v.1.15,2013-07-28 19:18:00,
2013-07-28 14:24:00,65.7,50.0,30.01,West,272,3.0,8.0,57,0.00,,,0.00,Wunderground v.1.15,2013-07-28 19:24:00,
2013-07-28 14:30:00,66.4,50.7,30.00,NNW,337,3.0,8.0,57,0.00,,,0.00,Wunderground v.1.15,2013-07-28 19:30:00,
2013-07-28 14:36:00,67.4,51.2,30.00,NW,305,2.0,8.0,56,0.00,,,0.00,Wunderground v.1.15,2013-07-28 19:36:00,
2013-07-28 14:42:00,67.4,51.6,30.00,NW,319,2.0,8.0,57,0.00,,,0.00,Wunderground v.1.15,2013-07-28 19:42:00,
2013-07-28 14:48:00,66.8,50.6,30.00,West,264,3.0,8.0,56,0.00,,,0.00,Wunderground v.1.15,2013-07-28 19:48:00,
2013-07-28 14:54:00,66.5,50.8,30.00,WNW,284,3.0,8.0,57,0.00,,,0.00,Wunderground v.1.15,2013-07-28 19:54:00,
2013-07-28 15:00:00,66.9,51.6,30.00,SW,232,2.0,2.0,58,0.00,,,0.00,Wunderground v.1.15,2013-07-28 20:00:00,
2013-07-28 15:05:00,67.1,50.4,30.00,NNE,23,2.0,8.0,55,0.00,,,0.00,Wunderground v.1.15,2013-07-28 20:05:00,
2013-07-28 15:12:00,67.3,51.1,30.01,West,259,2.0,8.0,56,0.00,,,0.00,Wunderground v.1.15,2013-07-28 20:12:00,
2013-07-28 15:17:00,67.7,51.4,30.00,SSE,166,2.0,8.0,56,0.00,,,0.00,Wunderground v.1.15,2013-07-28 20:17:00,
2013-07-28 15:24:00,67.3,50.6,30.00,West,272,3.0,8.0,55,0.00,,,0.00,Wunderground v.1.15,2013-07-28 20:24:00,
2013-07-28 15:30:00,67.3,51.1,30.00,NNE,32,2.0,2.0,56,0.00,,,0.00,Wunderground v.1.15,2013-07-28 20:30:00,
2013-07-28 15:36:00,67.7,50.9,30.01,West,276,1.0,8.0,55,0.00,,,0.00,Wunderground v.1.15,2013-07-28 20:36:00,
2013-07-28 15:42:00,67.6,51.3,30.00,WNW,291,3.0,8.0,56,0.00,,,0.00,Wunderground v.1.15,2013-07-28 20:42:00,
2013-07-28 15:48:00,67.9,50.6,30.00,WNW,293,3.0,8.0,54,0.00,,,0.00,Wunderground v.1.15,2013-07-28 20:48:00,
2013-07-28 15:54:00,68.1,51.3,30.00,West,273,3.0,8.0,55,0.00,,,0.00,Wunderground v.1.15,2013-07-28 20:54:00,
2013-07-28 16:00:00,68.1,51.8,30.00,WNW,287,3.0,8.0,56,0.00,,,0.00,Wunderground v.1.15,2013-07-28 21:00:00,
2013-07-28 16:06:00,68.9,51.6,30.00,West,281,3.0,8.0,54,0.00,,,0.00,Wunderground v.1.15,2013-07-28 21:06:00,
2013-07-28 16:12:00,68.4,52.1,30.00,WNW,300,3.0,4.0,56,0.00,,,0.00,Wunderground v.1.15,2013-07-28 21:12:00,
2013-07-28 16:18:00,69.4,53.0,30.00,SW,229,3.0,8.0,56,0.00,,,0.00,Wunderground v.1.15,2013-07-28 21:18:00,
2013-07-28 16:24:00,69.3,51.9,30.00,NE,44,2.0,8.0,54,0.00,,,0.00,Wunderground v.1.15,2013-07-28 21:24:00,
2013-07-28 16:30:00,68.7,51.9,30.00,WSW,245,2.0,8.0,55,0.00,,,0.00,Wunderground v.1.15,2013-07-28 21:30:00,
2013-07-28 16:36:00,68.2,51.9,30.01,NW,305,2.0,8.0,56,0.00,,,0.00,Wunderground v.1.15,2013-07-28 21:36:00,
2013-07-28 16:42:00,68.4,52.1,30.00,West,263,2.0,8.0,56,0.00,,,0.00,Wunderground v.1.15,2013-07-28 21:42:00,
2013-07-28 16:48:00,68.7,51.4,30.00,ENE,68,1.0,8.0,54,0.00,,,0.00,Wunderground v.1.15,2013-07-28 21:48:00,
2013-07-28 16:53:00,68.9,51.1,30.01,NW,316,2.0,8.0,53,0.00,,,0.00,Wunderground v.1.15,2013-07-28 21:53:00,
2013-07-28 17:00:00,68.5,51.2,30.01,NE,54,1.0,1.0,54,0.00,,,0.00,Wunderground v.1.15,2013-07-28 22:00:00,
2013-07-28 17:06:00,68.2,51.4,30.01,NNW,342,1.0,8.0,55,0.00,,,0.00,Wunderground v.1.15,2013-07-28 22:06:00,
2013-07-28 17:12:00,68.5,51.7,30.01,NW,314,2.0,8.0,55,0.00,,,0.00,Wunderground v.1.15,2013-07-28 22:12:00,
2013-07-28 17:18:00,69.3,51.9,30.00,ESE,105,1.0,8.0,54,0.00,,,0.00,Wunderground v.1.15,2013-07-28 22:18:00,
2013-07-28 17:23:00,69.6,52.7,30.00,NE,56,1.0,8.0,55,0.00,,,0.00,Wunderground v.1.15,2013-07-28 22:23:00,
2013-07-28 17:30:00,69.7,51.3,30.01,ENE,77,1.0,8.0,52,0.00,,,0.00,Wunderground v.1.15,2013-07-28 22:30:00,
2013-07-28 17:35:00,69.6,50.7,30.01,NNE,18,1.0,8.0,51,0.00,,,0.00,Wunderground v.1.15,2013-07-28 22:35:00,
2013-07-28 17:42:00,69.6,51.2,30.01,WNW,287,2.0,8.0,52,0.00,,,0.00,Wunderground v.1.15,2013-07-28 22:42:00,
2013-07-28 17:48:00,69.7,50.8,30.01,NNE,32,2.0,8.0,51,0.00,,,0.00,Wunderground v.1.15,2013-07-28 22:48:00,
2013-07-28 17:54:00,70.1,51.1,30.01,West,278,1.0,8.0,51,0.00,,,0.00,Wunderground v.1.15,2013-07-28 22:54:00,
2013-07-28 18:00:00,70.6,51.6,30.01,NE,56,1.0,1.0,51,0.00,,,0.00,Wunderground v.1.15,2013-07-28 23:00:00,
2013-07-28 18:06:00,71.0,51.4,30.01,NE,46,1.0,8.0,50,0.00,,,0.00,Wunderground v.1.15,2013-07-28 23:06:00,
2013-07-28 18:12:00,70.6,51.1,30.01,WSW,250,1.0,4.0,50,0.00,,,0.00,Wunderground v.1.15,2013-07-28 23:12:00,
2013-07-28 18:18:00,69.8,51.9,30.01,NE,51,2.0,8.0,53,0.00,,,0.00,Wunderground v.1.15,2013-07-28 23:18:00,
2013-07-28 18:24:00,70.7,52.2,30.01,East,86,1.0,8.0,52,0.00,,,0.00,Wunderground v.1.15,2013-07-28 23:24:00,
2013-07-28 18:30:00,70.2,51.2,30.01,NNW,332,1.0,1.0,51,0.00,,,0.00,Wunderground v.1.15,2013-07-28 23:30:00,
2013-07-28 18:36:00,68.9,50.5,30.02,ENE,63,1.0,8.0,52,0.00,,,0.00,Wunderground v.1.15,2013-07-28 23:36:00,
2013-07-28 18:42:00,68.3,51.5,30.02,NW,309,1.0,8.0,55,0.00,,,0.00,Wunderground v.1.15,2013-07-28 23:42:00,
2013-07-28 18:48:00,68.5,51.2,30.02,NNE,13,0.0,8.0,54,0.00,,,0.00,Wunderground v.1.15,2013-07-28 23:48:00,
2013-07-28 18:54:00,68.9,51.1,30.02,WNW,300,0.0,8.0,53,0.00,,,0.00,Wunderground v.1.15,2013-07-28 23:54:00,
2013-07-28 19:00:00,69.1,51.2,30.02,NE,46,1.0,8.0,53,0.00,,,0.00,Wunderground v.1.15,2013-07-29 00:00:00,
2013-07-28 19:06:00,69.6,51.2,30.01,West,281,1.0,8.0,52,0.00,,,0.00,Wunderground v.1.15,2013-07-29 00:06:00,
2013-07-28 19:11:00,70.3,51.3,30.01,WSW,253,1.0,8.0,51,0.00,,,0.00,Wunderground v.1.15,2013-07-29 00:11:00,
2013-07-28 19:18:00,69.8,51.4,30.01,West,280,1.0,8.0,52,0.00,,,0.00,Wunderground v.1.15,2013-07-29 00:18:00,
2013-07-28 19:24:00,69.5,51.6,30.02,WNW,295,2.0,8.0,53,0.00,,,0.00,Wunderground v.1.15,2013-07-29 00:24:00,
2013-07-28 19:30:00,70.0,52.1,30.02,WNW,295,1.0,8.0,53,0.00,,,0.00,Wunderground v.1.15,2013-07-29 00:30:00,
2013-07-28 19:36:00,70.2,52.3,30.02,ENE,63,0.0,8.0,53,0.00,,,0.00,Wunderground v.1.15,2013-07-29 00:36:00,
2013-07-28 19:41:00,70.1,51.7,30.02,SW,222,1.0,2.0,52,0.00,,,0.00,Wunderground v.1.15,2013-07-29 00:41:00,
2013-07-28 19:48:00,69.9,51.5,30.02,West,274,1.0,8.0,52,0.00,,,0.00,Wunderground v.1.15,2013-07-29 00:48:00,
2013-07-28 19:54:00,69.9,52.5,30.02,West,262,0.0,8.0,54,0.00,,,0.00,Wunderground v.1.15,2013-07-29 00:54:00,
2013-07-28 19:59:00,70.1,51.7,30.02,West,262,0.0,8.0,52,0.00,,,0.00,Wunderground v.1.15,2013-07-29 00:59:00,
2013-07-28 20:06:00,69.9,52.0,30.02,WSW,253,0.0,8.0,53,0.00,,,0.00,Wunderground v.1.15,2013-07-29 01:06:00,
2013-07-28 20:11:00,68.8,52.0,30.03,WSW,253,0.0,8.0,55,0.00,,,0.00,Wunderground v.1.15,2013-07-29 01:11:00,
2013-07-28 20:18:00,67.7,51.9,30.03,WSW,253,0.0,8.0,57,0.00,,,0.00,Wunderground v.1.15,2013-07-29 01:18:00,
2013-07-28 20:24:00,66.4,52.1,30.03,WSW,253,0.0,8.0,60,0.00,,,0.00,Wunderground v.1.15,2013-07-29 01:24:00,
2013-07-28 20:30:00,65.6,52.2,30.03,WSW,254,0.0,8.0,62,0.00,,,0.00,Wunderground v.1.15,2013-07-29 01:30:00,
2013-07-28 20:36:00,64.9,52.4,30.03,WSW,253,0.0,8.0,64,0.00,,,0.00,Wunderground v.1.15,2013-07-29 01:36:00,
2013-07-28 20:41:00,64.3,52.3,30.03,WSW,253,0.0,8.0,65,0.00,,,0.00,Wunderground v.1.15,2013-07-29 01:41:00,
2013-07-28 20:48:00,63.6,52.4,30.03,WSW,253,0.0,8.0,67,0.00,,,0.00,Wunderground v.1.15,2013-07-29 01:48:00,
2013-07-28 20:54:00,63.0,52.3,30.03,WSW,253,0.0,8.0,68,0.00,,,0.00,Wunderground v.1.15,2013-07-29 01:54:00,
2013-07-28 21:00:00,62.7,52.4,30.04,WSW,253,0.0,8.0,69,0.00,,,0.00,Wunderground v.1.15,2013-07-29 02:00:00,
2013-07-28 21:06:00,62.4,52.5,30.04,WSW,253,0.0,8.0,70,0.00,,,0.00,Wunderground v.1.15,2013-07-29 02:06:00,
2013-07-28 21:12:00,62.0,52.5,30.04,WSW,252,0.0,8.0,71,0.00,,,0.00,Wunderground v.1.15,2013-07-29 02:12:00,
2013-07-28 21:18:00,61.6,52.5,30.04,WSW,254,0.0,8.0,72,0.00,,,0.00,Wunderground v.1.15,2013-07-29 02:18:00,
2013-07-28 21:24:00,61.1,52.4,30.05,WSW,252,0.0,8.0,73,0.00,,,0.00,Wunderground v.1.15,2013-07-29 02:24:00,
2013-07-28 21:30:00,60.8,52.1,30.05,WSW,253,0.0,8.0,73,0.00,,,0.00,Wunderground v.1.15,2013-07-29 02:30:00,
2013-07-28 21:36:00,60.6,52.3,30.05,WSW,253,0.0,8.0,74,0.00,,,0.00,Wunderground v.1.15,2013-07-29 02:36:00,
2013-07-28 21:42:00,60.3,52.3,30.05,WSW,253,0.0,8.0,75,0.00,,,0.00,Wunderground v.1.15,2013-07-29 02:42:00,
2013-07-28 21:48:00,59.9,52.0,30.05,WSW,253,0.0,8.0,75,0.00,,,0.00,Wunderground v.1.15,2013-07-29 02:48:00,
2013-07-28 21:54:00,59.6,52.4,30.05,WSW,253,0.0,8.0,77,0.00,,,0.00,Wunderground v.1.15,2013-07-29 02:54:00,
2013-07-28 22:00:00,59.5,52.3,30.06,WSW,252,0.0,8.0,77,0.00,,,0.00,Wunderground v.1.15,2013-07-29 03:00:00,
2013-07-28 22:06:00,59.4,52.2,30.06,WSW,253,0.0,8.0,77,0.00,,,0.00,Wunderground v.1.15,2013-07-29 03:06:00,
2013-07-28 22:11:00,59.4,52.5,30.06,WSW,253,0.0,8.0,78,0.00,,,0.00,Wunderground v.1.15,2013-07-29 03:11:00,
2013-07-28 22:18:00,59.3,52.4,30.06,WSW,253,0.0,8.0,78,0.00,,,0.00,Wunderground v.1.15,2013-07-29 03:18:00,
2013-07-28 22:23:00,59.5,53.0,30.06,WSW,252,0.0,8.0,79,0.00,,,0.00,Wunderground v.1.15,2013-07-29 03:23:00,
2013-07-28 22:30:00,59.4,52.9,30.06,WSW,253,0.0,8.0,79,0.00,,,0.00,Wunderground v.1.15,2013-07-29 03:30:00,
2013-07-28 22:36:00,59.0,52.5,30.06,WSW,253,0.0,8.0,79,0.00,,,0.00,Wunderground v.1.15,2013-07-29 03:36:00,
2013-07-28 22:42:00,58.5,52.4,30.06,WSW,253,0.0,8.0,80,0.00,,,0.00,Wunderground v.1.15,2013-07-29 03:42:00,
2013-07-28 22:48:00,58.3,52.5,30.06,WSW,252,0.0,8.0,81,0.00,,,0.00,Wunderground v.1.15,2013-07-29 03:48:00,
2013-07-28 22:54:00,58.2,52.4,30.06,WSW,253,0.0,8.0,81,0.00,,,0.00,Wunderground v.1.15,2013-07-29 03:54:00,
2013-07-28 22:59:00,57.9,52.4,30.06,WSW,253,0.0,8.0,82,0.00,,,0.00,Wunderground v.1.15,2013-07-29 03:59:00,
2013-07-28 23:01:00,57.9,52.4,30.06,WSW,253,0.0,8.0,82,0.00,,,0.00,Wunderground v.1.15,2013-07-29 04:01:00,
2013-07-28 23:06:00,57.9,52.4,30.06,WSW,252,0.0,8.0,82,0.00,,,0.00,Wunderground v.1.15,2013-07-29 04:06:00,
2013-07-28 23:08:00,58.0,52.5,30.06,WSW,253,0.0,8.0,82,0.00,,,0.00,Wunderground v.1.15,2013-07-29 04:08:00,
2013-07-28 23:13:00,58.5,52.7,30.06,WSW,239,0.0,8.0,81,0.00,,,0.00,Wunderground v.1.15,2013-07-29 04:13:00,
2013-07-28 23:15:00,58.4,52.6,30.06,WSW,239,0.0,8.0,81,0.00,,,0.00,Wunderground v.1.15,2013-07-29 04:15:00,
2013-07-28 23:22:00,58.0,52.5,30.06,WSW,239,0.0,8.0,82,0.00,,,0.00,Wunderground v.1.15,2013-07-29 04:22:00,
2013-07-28 23:28:00,57.8,52.3,30.06,WSW,239,0.0,8.0,82,0.00,,,0.00,Wunderground v.1.15,2013-07-29 04:28:00,
2013-07-28 23:34:00,57.6,52.5,30.06,WSW,239,0.0,8.0,83,0.00,,,0.00,Wunderground v.1.15,2013-07-29 04:34:00,
2013-07-28 23:40:00,57.3,52.2,30.06,WSW,239,0.0,8.0,83,0.00,,,0.00,Wunderground v.1.15,2013-07-29 04:40:00,
2013-07-28 23:46:00,56.9,52.1,30.06,WSW,239,0.0,8.0,84,0.00,,,0.00,Wunderground v.1.15,2013-07-29 04:46:00,
2013-07-28 23:52:00,56.7,52.2,30.06,WSW,239,0.0,8.0,85,0.00,,,0.00,Wunderground v.1.15,2013-07-29 04:52:00,
2013-07-28 23:58:00,56.5,52.0,30.06,WSW,239,0.0,8.0,85,0.00,,,0.00,Wunderground v.1.15,2013-07-29 04:58:00,